Location: Saint-Gilles les Bains
(21.0539°S, 55.2287°E)
Time: 06:00:57
(UTC+04:00)

Hubble Space Telescope - Pass Details

Date: 23 June 2021
Orbit: 535 x 539 km, 28.5° (Epoch: 28 July)

Event Time Altitude Azimuth Distance (km) Brightness Sun altitude
Exits shadow 05:03:26 60° 75° (ENE) 617 1.2 -25.4°
Drops below altitude 10° 05:06:53 10° 70° (ENE) 1,790 4.5 -24.6°
Sets 05:09:08 0° 69° (ENE) 2,677 5.8 -24.1°
